Weather History for South Bend, IN

Change the Weather History Date:

Monday, December 2, 2013

  Actual Average Record
Temperature  
Mean Temperature 34 °F 33 °F  
Max Temperature 41 °F 40 °F 70 °F (1982)
Min Temperature 26 °F 27 °F -2 °F (1976)
Degree Days  
Heating Degree Days 31 32  
Month to date heating degree days 62 63  
Since 1 July heating degree days 1351 1332  
Cooling Degree Days 0 0  
Month to date cooling degree days 0 0  
Year to date cooling degree days 828 773  
Moisture  
Dew Point 27 °F    
Average Humidity 72    
Maximum Humidity 85    
Minimum Humidity 59    
Precipitation  
Precipitation 0.02 in 0.09 in 0.66 in (1921)
Month to date precipitation 0.02 0.19  
Year to date precipitation 38.04 35.58  
Snow  
Snow 0.00 in 0.30 in 6.90 in (1985)
Month to date snowfall 0.0 0.7  
Since 1 July snowfall 9.2 5.9  
Snow Depth 0.00 in    
Sea Level Pressure  
Sea Level Pressure 29.91 in    
Wind  
Wind Speed 7 mph (ESE)    
Max Wind Speed 17 mph    
Max Gust Speed 20 mph    
Visibility 8 miles    
Events Rain    
T = Trace of Precipitation, MM = Missing Value Source: NWS Daily Summary

Daily Weather History Graph

Daily Weather History Graph

Search for Another Location

Airport:

Trip Planner

Search our weather history database for the weather conditions in past years. The results will help you decide how hot, cold, wet, or windy it might be!

Date:

Astronomy

Dec. 02, 2013 Rise Set
Actual Time 7:54 AM EST 5:15 PM EST
Civil Twilight 7:23 AM EST 5:46 PM EST
Nautical Twilight 6:48 AM EST 6:20 PM EST
Astronomical Twilight 6:14 AM EST 6:54 PM EST
Moon 7:18 AM EST (12/2) 5:18 PM EST (12/2)
Length of Visible Light 10h 23m
Length of Day
9h 21m
Waning Crescent, 0% of the Moon is Illuminated
Dec 2
Waning Crescent
Dec 2
New
Dec 9
First Quarter
Dec 17
Full
Dec 25
Last Quarter

Hourly Weather History & Observations

Time (EST) Temp. Windchill Dew Point Humidity Pressure Visibility Wind Dir Wind Speed Gust Speed Precip Events Conditions
12:54 AM 26.1 °F - 21.9 °F 84% 30.01 in 7.0 mi Calm Calm - N/A   Clear
1:54 AM 26.1 °F - 21.9 °F 84% 29.99 in 6.0 mi Calm Calm - N/A   Clear
2:54 AM 26.1 °F - 21.9 °F 84% 30.00 in 6.0 mi Calm Calm - N/A   Scattered Clouds
3:54 AM 28.0 °F - 24.1 °F 85% 29.99 in 7.0 mi Calm Calm - N/A   Mostly Cloudy
4:54 AM 30.0 °F 25.2 °F 26.1 °F 85% 29.97 in 6.0 mi ESE 4.6 mph - N/A   Overcast
5:54 AM 30.9 °F 26.2 °F 27.0 °F 85% 29.96 in 6.0 mi East 4.6 mph - N/A   Overcast
6:54 AM 30.9 °F 25.2 °F 27.0 °F 85% 29.96 in 5.0 mi ESE 5.8 mph - N/A   Overcast
7:54 AM 32.0 °F 28.7 °F 27.0 °F 82% 29.96 in 5.0 mi East 3.5 mph - N/A   Haze
8:54 AM 32.0 °F 28.7 °F 28.0 °F 85% 29.96 in 4.0 mi East 3.5 mph - N/A   Overcast
9:54 AM 33.1 °F 30.0 °F 28.0 °F 82% 29.95 in 4.0 mi East 3.5 mph - N/A   Haze
10:54 AM 36.0 °F 31.1 °F 28.9 °F 76% 29.95 in 5.0 mi SE 5.8 mph - N/A   Haze
11:54 AM 39.0 °F 31.8 °F 26.1 °F 60% 29.93 in 10.0 mi ESE 11.5 mph - N/A   Mostly Cloudy
12:54 PM 39.9 °F 35.1 °F 27.0 °F 60% 29.91 in 10.0 mi ESE 6.9 mph - N/A   Mostly Cloudy
1:54 PM 39.9 °F 34.5 °F 26.1 °F 58% 29.88 in 10.0 mi ESE 8.1 mph - N/A   Mostly Cloudy
2:54 PM 39.9 °F 34.5 °F 27.0 °F 60% 29.87 in 10.0 mi ESE 8.1 mph - N/A   Overcast
3:54 PM 39.9 °F 33.9 °F 27.0 °F 60% 29.86 in 9.0 mi East 9.2 mph - N/A   Mostly Cloudy
4:54 PM 37.9 °F 32.1 °F 27.0 °F 65% 29.86 in 9.0 mi East 8.1 mph - N/A   Scattered Clouds
5:54 PM 37.0 °F 29.8 °F 27.0 °F 67% 29.87 in 10.0 mi ESE 10.4 mph - N/A   Partly Cloudy
6:54 PM 36.0 °F 28.5 °F 28.0 °F 73% 29.85 in 10.0 mi East 10.4 mph - N/A   Overcast
7:54 PM 36.0 °F 29.6 °F 28.0 °F 73% 29.87 in 10.0 mi ESE 8.1 mph - N/A   Overcast
8:54 PM 36.0 °F 28.0 °F 28.0 °F 73% 29.86 in 10.0 mi ESE 11.5 mph - N/A   Overcast
9:42 PM 35.6 °F 27.5 °F 28.4 °F 75% 29.83 in 9.0 mi ESE 11.5 mph - N/A   Overcast
9:54 PM 36.0 °F 26.3 °F 28.9 °F 76% 29.85 in 10.0 mi ESE 16.1 mph - 0.00 in Rain Light Rain
10:23 PM 35.6 °F 26.2 °F 28.4 °F 75% 29.83 in 9.0 mi ESE 15.0 mph - 0.00 in Rain Light Rain
10:43 PM 35.6 °F 27.1 °F 30.2 °F 81% 29.83 in 6.0 mi ESE 12.7 mph - 0.01 in Rain Light Rain
10:54 PM 35.1 °F 26.4 °F 30.0 °F 82% 29.85 in 7.0 mi ESE 12.7 mph - 0.01 in Rain Light Rain
11:54 PM 35.1 °F 25.9 °F 30.9 °F 85% 29.85 in 6.0 mi ESE 13.8 mph - 0.01 in Rain Light Rain